Terug naar catalogus

METEOR 1-22 DEB

ActiefPO
NORAD 36302·DEBRIS·🇷🇺 Russia

Gelanceerd Sep 18, 1975 vanaf Plesetsk Cosmodrome

Loading…

Volgende Passages (komende 24 uur)

TLE

VersSource: Space-Track

Epoch: Sep 14, 2026, 06:11 UTC

1 36302U 75087C   26257.25779494  .00000163  00000-0  81022-4 0  9997
2 36302  81.2533 347.5992 0110954 222.1279 166.5268 14.09804299903464

Volg METEOR 1-22 DEB in realtime met AllMySat

Download on the App Store